Evansville Regional (EVV)

 

Airport Diagram
Current Weather/Forecast (LIFR Conditions)
METAR KEVV 260054Z 05007KT 10SM OVC003 04/03 A2962 RMK AO2 RAE11 SLP033 P0001 T00440028
TAF KEVV 252320Z 2600/2624 10007KT P6SM VCSH OVC006 FM260500 VRB04KT 1/2SM FG OVC002 TEMPO 2608/2611 2SM BR OVC005 FM261100 23005KT P6SM OVC007 FM261800 25010KT P6SM OVC015 FM262300 29009KT P6SM BKN022

Airport Information

All Charts
General
Chart Name View
AIRPORT DIAGRAM
AIRPORT DIAGRAM
TAKEOFF MINIMUMS
ALTERNATE MINIMUMS
RADAR MINIMUMS
TAKEOFF MINIMUMS
ALTERNATE MINIMUMS
RADAR MINIMUMS
HOT SPOT
HOT SPOT

Approaches
Chart Name Download
ILS OR LOC RWY 04
ILS OR LOC RWY 22
RNAV (GPS) RWY 04
RNAV (GPS) RWY 18
RNAV (GPS) RWY 22
RNAV (GPS) RWY 36
VOR RWY 04
ILS OR LOC RWY 04
ILS OR LOC RWY 22
RNAV (GPS) RWY 04
RNAV (GPS) RWY 18
RNAV (GPS) RWY 22
RNAV (GPS) RWY 36
VOR RWY 04


Airport Statistics
Departures Arrivals Local
All Collected Stats since June 2016: 158 155 3
2021 Stats: 14 12 1
January Stats: 14 12 1

Inbound Traffic (Arrivals) - 0

No inbound traffic.


Outbound Traffic (Departures) - 0

No outbound traffic.


Local Traffic (Pattern) - 0

No local traffic.